This is the latest recevied weather packets stored in our database for station/object KD5UMO-1. If no packets are shown the sender has not sent any weather packets the latest 10 day(s).
| Time | Temp. | Humidity | Pressure | Rain* | Wind** | Luminosity | Snow |
|---|---|---|---|---|---|---|---|
| 1777768743 | 23.33° C | 39% | 1018.7 hPa | 0 mm | - | 28 W/m² | - |
| 1777768440 | 23.89° C | 38% | 1018.7 hPa | 0 mm | - | 35 W/m² | - |
| 1777768137 | 23.89° C | 39% | 1018.9 hPa | 0 mm | - | 39 W/m² | - |
| 1777767834 | 23.89° C | 38% | 1018.7 hPa | 0 mm | - | 45 W/m² | - |
| 1777767530 | 23.89° C | 37% | 1018.8 hPa | 0 mm | - | 53 W/m² | - |
| 1777767226 | 25° C | 36% | 1018.7 hPa | 0 mm | - | 61 W/m² | - |
| 1777766924 | 24.44° C | 37% | 1018.6 hPa | 0 mm | - | 66 W/m² | - |
| 1777766622 | 24.44° C | 36% | 1018.7 hPa | 0 mm | - | 76 W/m² | - |
| 1777766318 | 25° C | 35% | 1018.7 hPa | 0 mm | - | 86 W/m² | - |
| 1777766016 | 25.56° C | 35% | 1018.7 hPa | 0 mm | - | 94 W/m² | - |
| 1777765712 | 25.56° C | 33% | 1018.5 hPa | 0 mm | - | 106 W/m² | - |
| 1777765409 | 25.56° C | 33% | 1018.8 hPa | 0 mm | - | 122 W/m² | - |
| 1777765106 | 25.56° C | 34% | 1018.7 hPa | 0 mm | - | 138 W/m² | - |
| 1777764802 | 25.56° C | 33% | 1018.8 hPa | 0 mm | - | 153 W/m² | - |
| 1777764499 | 25.56° C | 33% | 1018.8 hPa | 0 mm | - | 170 W/m² | - |
| 1777764195 | 25.56° C | 34% | 1019 hPa | 0 mm | - | 185 W/m² | - |
| 1777763892 | 25.56° C | 33% | 1018.8 hPa | 0 mm | - | 201 W/m² | - |
| 1777763590 | 25.56° C | 33% | 1018.8 hPa | 0 mm | - | 216 W/m² | - |
| 1777763288 | 26.11° C | 33% | 1019 hPa | 0 mm | - | 238 W/m² | - |
| 1777762986 | 26.11° C | 34% | 1018.9 hPa | 0 mm | - | 257 W/m² | - |
| 1777762682 | 26.11° C | 32% | 1018.9 hPa | 0 mm | - | 267 W/m² | - |
| 1777762379 | 25.56° C | 33% | 1018.9 hPa | 0 mm | - | 285 W/m² | - |
| 1777762075 | 25.56° C | 33% | 1018.9 hPa | 0 mm | - | 294 W/m² | - |
| 1777761772 | 25° C | 33% | 1019 hPa | 0 mm | - | 318 W/m² | - |
| 1777761469 | 25.56° C | 33% | 1019.2 hPa | 0 mm | - | 335 W/m² | - |
* Rain latest hour (hover to see other rain measurements)
** Current wind speed in m/s (hover to see current wind gust speed)